When you browse on this site, cookies collect data to enhance your experience and personalize the content and advertising you see.
Visit our Privacy Policy to learn more. By continuing to use the site, you agree to this use of cookies and data.
  • In Denmark
  • List of Countries
  • For 7 days
  • Water Temperature
  • Weather Map
  • Weather Widgets
  • user-avatar
    Login

    Hourly Weather Valladolid

    Today, 29 May, Friday

    Time Temperature Precipitation Wind Pressure Humidity
    00:00 +18°C° 0 mm 2 mps 703 mmHg 59%
    01:00 +18°C° 0 mm 1 mps 703 mmHg 60%
    02:00 +18°C° 0 mm 1 mps 703 mmHg 61%
    03:00 +16°C° 0 mm 1 mps 703 mmHg 62%
    04:00 +16°C° 0 mm 1 mps 703 mmHg 63%
    05:00 +18°C° 0 mm 1 mps 703 mmHg 64%
    06:00 +19°C° 0 mm 1 mps 703 mmHg 65%
    07:00 +21°C° 0 mm 1 mps 703 mmHg 59%
    08:00 +23°C° 0 mm 1 mps 703 mmHg 52%
    09:00 +25°C° 0 mm 1 mps 703 mmHg 45%
    10:00 +26°C° 0 mm 1 mps 703 mmHg 43%
    11:00 +28°C° 0 mm 1 mps 703 mmHg 40%
    12:00 +29°C° 0 mm 2 mps 703 mmHg 36%
    13:00 +29°C° 0 mm 2 mps 703 mmHg 34%
    14:00 +29°C° 0 mm 2 mps 702 mmHg 31%
    15:00 +30°C° 0 mm 3 mps 702 mmHg 29%
    16:00 +29°C° 0 mm 3 mps 701 mmHg 33%
    17:00 +28°C° 0 mm 3 mps 701 mmHg 37%
    18:00 +27°C° 0 mm 3 mps 701 mmHg 41%
    19:00 +25°C° 0 mm 3 mps 701 mmHg 46%
    20:00 +22°C° 0 mm 3 mps 701 mmHg 51%
    21:00 +19°C° 0 mm 3 mps 701 mmHg 56%
    22:00 +19°C° 0 mm 3 mps 701 mmHg 56%
    23:00 +18°C° 0 mm 3 mps 701 mmHg 56%

    Tomorrow, 30 May, Saturday

    Time Temperature Precipitation Wind Pressure Humidity
    00:00 +17°C° 0 mm 3 mps 700 mmHg 56%
    01:00 +16°C° 0 mm 3 mps 700 mmHg 57%
    02:00 +15°C° 0 mm 2 mps 700 mmHg 58%
    03:00 +15°C° 0 mm 2 mps 700 mmHg 59%
    04:00 +15°C° 0 mm 2 mps 700 mmHg 62%
    05:00 +15°C° 0 mm 2 mps 700 mmHg 64%
    06:00 +15°C° 0 mm 2 mps 700 mmHg 66%
    07:00 +18°C° 0 mm 2 mps 700 mmHg 60%
    08:00 +21°C° 0 mm 1 mps 701 mmHg 53%
    09:00 +24°C° 0 mm 1 mps 701 mmHg 47%
    10:00 +26°C° 0 mm 1 mps 701 mmHg 42%
    11:00 +28°C° 0 mm 1 mps 701 mmHg 37%
    12:00 +29°C° 0 mm 1 mps 701 mmHg 32%
    13:00 +30°C° 0 mm 1 mps 700 mmHg 31%
    14:00 +30°C° 0 mm 1 mps 700 mmHg 29%
    15:00 +31°C° 0 mm 1 mps 700 mmHg 27%
    16:00 +30°C° 0 mm 1 mps 700 mmHg 30%
    17:00 +30°C° 0 mm 1 mps 699 mmHg 33%
    18:00 +29°C° 0 mm 2 mps 699 mmHg 36%
    19:00 +27°C° 0 mm 2 mps 699 mmHg 42%
    20:00 +25°C° 0 mm 2 mps 699 mmHg 47%
    21:00 +21°C° 0 mm 3 mps 699 mmHg 52%
    22:00 +21°C° 0 mm 2 mps 699 mmHg 54%
    23:00 +21°C° 0 mm 1 mps 699 mmHg 57%

    Day after tomorrow, 31 May, Sunday

    Time Temperature Precipitation Wind Pressure Humidity
    00:00 +21°C° 0 mm 1 mps 699 mmHg 59%
    01:00 +20°C° 0 mm 1 mps 699 mmHg 59%
    02:00 +20°C° 0 mm 1 mps 699 mmHg 58%
    03:00 +20°C° 0 mm 1 mps 698 mmHg 58%
    04:00 +20°C° 0 mm 1 mps 698 mmHg 60%
    05:00 +20°C° 0 mm 1 mps 698 mmHg 62%
    06:00 +20°C° 0 mm 1 mps 699 mmHg 64%
    07:00 +22°C° 0.1 mm 1 mps 699 mmHg 58%
    08:00 +24°C° 0.1 mm 1 mps 699 mmHg 52%
    09:00 +26°C° 0.1 mm 1 mps 699 mmHg 46%
    10:00 +27°C° 0 mm 1 mps 699 mmHg 42%
    11:00 +28°C° 0 mm 1 mps 699 mmHg 39%
    12:00 +29°C° 0 mm 1 mps 699 mmHg 35%
    13:00 +29°C° 0.1 mm 2 mps 699 mmHg 35%
    14:00 +29°C° 0.1 mm 3 mps 699 mmHg 36%
    15:00 +28°C° 0.1 mm 4 mps 698 mmHg 36%
    16:00 +26°C° 0.8 mm 4 mps 698 mmHg 47%
    17:00 +22°C° 0.8 mm 4 mps 698 mmHg 57%
    18:00 +19°C° 0.8 mm 4 mps 698 mmHg 68%
    19:00 +18°C° 0.1 mm 4 mps 699 mmHg 73%
    20:00 +17°C° 0.1 mm 4 mps 699 mmHg 79%
    21:00 +16°C° 0.1 mm 3 mps 700 mmHg 84%
    22:00 +16°C° 0.1 mm 3 mps 700 mmHg 87%
    23:00 +15°C° 0.1 mm 2 mps 700 mmHg 89%

    1 June, Monday

    Time Temperature Precipitation Wind Pressure Humidity
    00:00 +15°C° 0.1 mm 2 mps 699 mmHg 92%
    01:00 +15°C° 0 mm 2 mps 699 mmHg 92%
    02:00 +15°C° 0 mm 2 mps 699 mmHg 92%
    03:00 +15°C° 0 mm 1 mps 699 mmHg 92%
    04:00 +15°C° 0 mm 1 mps 699 mmHg 91%
    05:00 +15°C° 0 mm 1 mps 699 mmHg 89%
    06:00 +16°C° 0 mm 1 mps 699 mmHg 88%
    07:00 +18°C° 0 mm 1 mps 700 mmHg 81%
    08:00 +20°C° 0 mm 1 mps 700 mmHg 74%
    09:00 +21°C° 0 mm 2 mps 700 mmHg 67%
    10:00 +23°C° 0.1 mm 2 mps 700 mmHg 60%
    11:00 +25°C° 0.1 mm 2 mps 701 mmHg 52%
    12:00 +27°C° 0.1 mm 2 mps 701 mmHg 45%
    13:00 +27°C° 0 mm 2 mps 701 mmHg 42%
    14:00 +28°C° 0 mm 2 mps 701 mmHg 40%
    15:00 +28°C° 0 mm 2 mps 701 mmHg 37%
    16:00 +28°C° 0 mm 2 mps 700 mmHg 40%
    17:00 +27°C° 0 mm 2 mps 700 mmHg 43%
    18:00 +27°C° 0 mm 2 mps 700 mmHg 46%
    19:00 +25°C° 0 mm 2 mps 700 mmHg 49%
    20:00 +24°C° 0 mm 1 mps 700 mmHg 52%
    21:00 +22°C° 0 mm 1 mps 701 mmHg 55%
    22:00 +21°C° 0 mm 1 mps 701 mmHg 57%
    23:00 +21°C° 0 mm 1 mps 700 mmHg 60%

    2 June, Tuesday

    Time Temperature Precipitation Wind Pressure Humidity
    00:00 +20°C° 0 mm 1 mps 700 mmHg 63%
    01:00 +19°C° 0 mm 1 mps 700 mmHg 65%
    02:00 +18°C° 0 mm 2 mps 700 mmHg 67%
    03:00 +17°C° 0 mm 2 mps 700 mmHg 69%
    04:00 +17°C° 0 mm 2 mps 700 mmHg 72%
    05:00 +18°C° 0 mm 2 mps 700 mmHg 74%
    06:00 +18°C° 0 mm 2 mps 700 mmHg 76%
    07:00 +19°C° 0 mm 2 mps 700 mmHg 70%
    08:00 +21°C° 0 mm 2 mps 701 mmHg 63%
    09:00 +24°C° 0 mm 2 mps 701 mmHg 57%
    10:00 +26°C° 0 mm 2 mps 701 mmHg 50%
    11:00 +27°C° 0 mm 2 mps 701 mmHg 43%
    12:00 +29°C° 0 mm 3 mps 701 mmHg 35%
    13:00 +29°C° 0 mm 3 mps 701 mmHg 34%
    14:00 +29°C° 0 mm 3 mps 700 mmHg 32%
    15:00 +30°C° 0 mm 3 mps 700 mmHg 31%
    16:00 +29°C° 0 mm 3 mps 700 mmHg 35%
    17:00 +28°C° 0 mm 3 mps 699 mmHg 38%
    18:00 +27°C° 0 mm 3 mps 699 mmHg 42%
    19:00 +25°C° 0 mm 3 mps 699 mmHg 50%
    20:00 +22°C° 0 mm 3 mps 699 mmHg 57%
    21:00 +19°C° 0 mm 3 mps 698 mmHg 65%
    22:00 +18°C° 0 mm 3 mps 698 mmHg 70%
    23:00 +18°C° 0 mm 2 mps 698 mmHg 76%

    3 June, Wednesday

    Time Temperature Precipitation Wind Pressure Humidity
    00:00 +17°C° 0 mm 2 mps 698 mmHg 81%
    01:00 +16°C° 0 mm 1 mps 697 mmHg 81%
    02:00 +16°C° 0 mm 1 mps 697 mmHg 82%
    03:00 +15°C° 0 mm 1 mps 696 mmHg 82%
    04:00 +16°C° 0 mm 1 mps 696 mmHg 81%
    05:00 +16°C° 0 mm 1 mps 696 mmHg 80%
    06:00 +18°C° 0 mm 1 mps 696 mmHg 79%
    07:00 +19°C° 0 mm 2 mps 696 mmHg 72%
    08:00 +21°C° 0 mm 2 mps 696 mmHg 65%
    09:00 +22°C° 0 mm 3 mps 696 mmHg 57%
    10:00 +25°C° 0.6 mm 4 mps 696 mmHg 54%
    11:00 +26°C° 0.6 mm 5 mps 696 mmHg 50%
    12:00 +27°C° 0.6 mm 6 mps 696 mmHg 47%
    13:00 +27°C° 0.1 mm 7 mps 695 mmHg 46%
    14:00 +27°C° 0.1 mm 8 mps 695 mmHg 44%
    15:00 +27°C° 0.1 mm 9 mps 694 mmHg 43%
    16:00 +24°C° 0.3 mm 8 mps 694 mmHg 50%
    17:00 +23°C° 0.3 mm 8 mps 694 mmHg 57%
    18:00 +21°C° 0.3 mm 8 mps 694 mmHg 65%
    19:00 +19°C° 0.7 mm 6 mps 694 mmHg 74%
    20:00 +17°C° 0.7 mm 4 mps 694 mmHg 83%
    21:00 +15°C° 0.7 mm 2 mps 694 mmHg 92%
    22:00 +15°C° 0.6 mm 2 mps 693 mmHg 92%
    23:00 +14°C° 0.6 mm 3 mps 693 mmHg 91%
    Show more